Weather in Marupe

Latvia     56°54′27″N   24°02′14″E
temp.,
°C
wind,
m/s
gust,
m/s
humid.,
%
clouds,
%
prec.,
mm/h
press.,
hPa
HPBL,
m
22 april, thu
thu2200:00+7sw496691 0.0 1004297
03:00+6sw5117019 0.0 1004391
06:00+4ssw5117460 0.0 1004392
09:00+6ssw6965100 0.0 1005739
12:00+9ssw684498 0.0 10041588
15:00+10sw7104596 0.5 10041649
18:00+8sw7104873 0.0 10041365
21:00+5ssw596992 0.0 1005609
23 april, fri
fri2300:00+4ssw61086100 0.1 1004779
03:00+3ssw61094100 1.1 1003771
06:00+2wsw61094100 1.3 1003769
09:00+2wnw8119099 1.9 1006887
12:00+2wnw61195100 0.7 1008891
15:00+4nw71174100 1.3 10101292
18:00+4nw71173100 0.4 10121262
21:00+2wnw7117699 0.5 10131114
24 april, sat
sat2400:00+2w71283100 0.1 10121090
03:00+1w91493100 0.4 10111138
06:00+2wnw81497100 0.7 1011995
09:00+2wnw91393100 1.6 10111057
12:00+4wnw81170100 0.6 10121476
15:00+5w81263100 0.8 10111557
18:00+3wnw91492100 0.8 10111004
21:00+2nw101393100 1.3 1012987
25 april, sun
sun2500:00+1nw101395100 0.4 1012940
03:00+2nw81282100 0.9 10121297
06:00+1wnw81397100 0.7 1011940
09:00+2w81394100 1.8 1010964
12:00+2wnw71096100 0.9 1010693
15:00+3nw81185100 2.1 10111039
18:00+2nw81291100 0.6 1012982
21:00+2wnw71081100 0.8 1012943
26 april, mon
mon2600:00+1wsw61088100 0.1 1011786
03:000sw489585 0.3 1010424
06:000ssw2394100 0.3 1009314
09:00+2ene1180100 0.3 1010538
12:00+2nne2275100 0.0 1012715
15:00+3nnw327040 0.0 1013685
18:00+3nnw336778 0.0 1013551
21:00+2nw24757 0.0 1013186